Location: Pavia
(45.1670°N, 9.1670°E)
Time: 13:16:10
(UTC+02:00)

ISS - Visible Passes

Search period start: 11 May 2021 00:00
Search period end: 21 May 2021 00:00
Orbit: 417 x 422 km, 51.6° (Epoch: 11 May)

Date Brightness Start Highest point End Pass type
(mag) Time Alt. Az. Time Alt. Az. Time Alt. Az.
11 May -1.6 02:04:21 27° NNE 02:04:21 27° NNE 02:06:29 10° NE visible
11 May -1.6 03:37:50 10° NW 03:40:47 27° N 03:43:44 10° ENE visible
11 May -3.2 05:14:40 10° WNW 05:18:02 63° NNE 05:21:24 10° ESE visible
12 May -1.0 01:18:16 15° NE 01:18:16 15° NE 01:19:03 10° NE visible
12 May -1.5 02:51:12 16° NW 02:53:12 26° N 02:56:07 10° ENE visible
12 May -2.6 04:27:16 10° NW 04:30:33 45° NNE 04:33:49 10° E visible
13 May -1.6 02:05:02 25° NNW 02:05:35 26° N 02:08:31 10° NE visible
13 May -2.1 03:39:51 10° NW 03:43:01 35° NNE 03:46:10 10° E visible
13 May -3.7 05:16:38 10° WNW 05:19:58 56° SSW 05:23:17 10° SE visible
14 May -1.6 01:18:38 27° NNE 01:18:38 27° NNE 01:21:01 10° NE visible
14 May -1.8 02:52:24 10° NW 02:55:26 30° N 02:58:29 10° ENE visible
14 May -3.8 04:29:10 10° WNW 04:32:33 88° SW 04:35:57 10° ESE visible
14 May -3.9 22:50:06 10° SW 22:53:26 66° SSE 22:55:36 20° ENE visible
15 May -2.0 00:27:19 10° W 00:30:26 33° NNW 00:33:33 10° NE visible
15 May -1.6 02:04:55 10° NW 02:07:51 27° N 02:10:49 10° ENE visible
15 May -3.3 03:41:45 10° WNW 03:45:06 63° NNE 03:48:28 10° ESE visible
15 May -3.4 22:02:53 10° SSW 22:06:03 41° SE 22:09:15 10° ENE visible
15 May -2.5 23:39:40 10° W 23:42:53 41° NNW 23:46:07 10° NE visible
16 May -1.5 01:17:21 10° WNW 01:20:16 26° N 01:23:10 10° ENE visible
16 May -2.7 02:54:20 10° NW 02:57:37 45° NNE 03:00:53 10° E visible
16 May -3.2 04:31:16 10° WNW 04:34:22 34° SW 04:37:28 10° SSE visible
16 May -3.1 22:52:03 10° WSW 22:55:22 56° NNW 22:58:42 10° NE visible
17 May -1.5 00:29:44 10° WNW 00:32:40 26° N 00:35:35 10° NE visible
17 May -2.2 02:06:55 10° NW 02:10:05 35° NNE 02:13:14 10° E visible
17 May -3.8 03:43:42 10° WNW 03:47:01 56° SW 03:50:20 10° SE visible
17 May -3.7 22:04:33 10° WSW 22:07:55 81° NNW 22:11:17 10° ENE visible
17 May -1.7 23:42:04 10° WNW 23:45:04 29° N 23:48:04 10° NE visible
18 May -1.8 01:19:29 10° NW 01:22:31 30° N 01:22:57 29° NNE visible
18 May -3.8 21:17:09 10° SW 21:20:29 66° SSE 21:23:50 10° ENE visible
18 May -1.9 22:54:24 10° W 22:57:30 33° NNW 23:00:36 10° NE visible
19 May -1.6 00:31:58 10° NW 00:34:55 27° N 00:36:33 18° NE visible
19 May -1.2 02:08:48 10° WNW 02:09:28 15° NW 02:09:28 15° NW visible
19 May -2.3 22:06:44 10° W 22:09:56 41° NNW 22:13:10 10° NE visible
19 May -1.5 23:44:25 10° WNW 23:47:19 26° N 23:50:13 10° ENE visible
20 May -1.9 01:21:23 10° NW 01:23:19 28° NW 01:23:19 28° NW visible
20 May -1.5 22:56:48 10° WNW 22:59:43 26° N 23:02:38 10° NE visible
